When you browse on this site, cookies collect data to enhance your experience and personalize the content and advertising you see.
Visit our Privacy Policy to learn more. By continuing to use the site, you agree to this use of cookies and data.
  • In Czech Republic
  • List of Countries
  • For 7 days
  • Water Temperature
  • Satellite Maps
  • Weather Map
  • Weather Widgets
  • user-avatar
    Login

    Hourly Weather Rangpur

    Today, 24 May, Friday

    Time Temperature Precipitation Wind Pressure Humidity
    00:00 +26°C° 0 mm 3 mps 752 mmHg 89%
    01:00 +26°C° 0.8 mm 3 mps 752 mmHg 89%
    02:00 +26°C° 0.8 mm 4 mps 751 mmHg 89%
    03:00 +26°C° 0.8 mm 4 mps 751 mmHg 90%
    04:00 +25°C° 1.4 mm 4 mps 751 mmHg 90%
    05:00 +25°C° 1.4 mm 4 mps 751 mmHg 90%
    06:00 +26°C° 0 mm 5 mps 751 mmHg 92%
    07:00 +27°C° 0.7 mm 5 mps 752 mmHg 88%
    08:00 +28°C° 0.7 mm 5 mps 752 mmHg 84%
    09:00 +29°C° 0.7 mm 5 mps 752 mmHg 80%
    10:00 +30°C° 0.2 mm 4 mps 752 mmHg 78%
    11:00 +30°C° 0.2 mm 4 mps 752 mmHg 76%
    12:00 +31°C° 0.2 mm 3 mps 751 mmHg 74%
    13:00 +33°C° 0 mm 3 mps 751 mmHg 73%
    14:00 +33°C° 0 mm 3 mps 750 mmHg 71%
    15:00 +34°C° 0 mm 3 mps 749 mmHg 70%
    16:00 +34°C° 0.2 mm 3 mps 749 mmHg 73%
    17:00 +33°C° 0.2 mm 3 mps 748 mmHg 75%
    18:00 +33°C° 0.2 mm 3 mps 748 mmHg 78%
    19:00 +30°C° 2.5 mm 3 mps 748 mmHg 82%
    20:00 +29°C° 2.5 mm 3 mps 748 mmHg 86%
    21:00 +28°C° 2.5 mm 3 mps 749 mmHg 90%
    22:00 +27°C° 1.7 mm 3 mps 749 mmHg 91%
    23:00 +27°C° 1.7 mm 3 mps 749 mmHg 91%

    Tomorrow, 25 May, Saturday

    Time Temperature Precipitation Wind Pressure Humidity
    00:00 +27°C° 1.7 mm 3 mps 749 mmHg 92%
    01:00 +27°C° 3.1 mm 4 mps 748 mmHg 93%
    02:00 +27°C° 3.1 mm 4 mps 748 mmHg 94%
    03:00 +27°C° 3.1 mm 4 mps 747 mmHg 95%
    04:00 +27°C° 3.2 mm 4 mps 747 mmHg 95%
    05:00 +26°C° 3.2 mm 5 mps 748 mmHg 95%
    06:00 +26°C° 3.2 mm 5 mps 748 mmHg 95%
    07:00 +27°C° 0.7 mm 5 mps 748 mmHg 94%
    08:00 +27°C° 0.7 mm 5 mps 749 mmHg 93%
    09:00 +28°C° 0.7 mm 5 mps 749 mmHg 91%
    10:00 +28°C° 0.6 mm 5 mps 749 mmHg 91%
    11:00 +29°C° 0.6 mm 4 mps 749 mmHg 90%
    12:00 +29°C° 0.6 mm 4 mps 749 mmHg 89%
    13:00 +32°C° 0.3 mm 4 mps 748 mmHg 85%
    14:00 +33°C° 0.3 mm 5 mps 748 mmHg 80%
    15:00 +35°C° 0.3 mm 5 mps 747 mmHg 76%
    16:00 +34°C° 0.5 mm 4 mps 746 mmHg 79%
    17:00 +33°C° 0.5 mm 3 mps 746 mmHg 82%
    18:00 +31°C° 0.5 mm 3 mps 745 mmHg 86%
    19:00 +30°C° 1 mm 3 mps 746 mmHg 87%
    20:00 +30°C° 1 mm 4 mps 747 mmHg 89%
    21:00 +29°C° 1 mm 4 mps 748 mmHg 91%
    22:00 +29°C° 0 mm 4 mps 748 mmHg 92%
    23:00 +28°C° 0 mm 4 mps 748 mmHg 93%

    Day after tomorrow, 26 May, Sunday

    Time Temperature Precipitation Wind Pressure Humidity
    00:00 +28°C° 0 mm 3 mps 748 mmHg 94%
    01:00 +28°C° 0.9 mm 3 mps 748 mmHg 94%
    02:00 +28°C° 0.9 mm 3 mps 747 mmHg 94%
    03:00 +28°C° 0.9 mm 3 mps 747 mmHg 94%
    04:00 +27°C° 1.6 mm 3 mps 747 mmHg 94%
    05:00 +27°C° 1.6 mm 3 mps 747 mmHg 94%
    06:00 +27°C° 1.6 mm 3 mps 748 mmHg 94%
    07:00 +28°C° 0.8 mm 3 mps 748 mmHg 92%
    08:00 +29°C° 0.8 mm 4 mps 749 mmHg 90%
    09:00 +29°C° 0.8 mm 4 mps 749 mmHg 88%
    10:00 +30°C° 0.1 mm 3 mps 749 mmHg 87%
    11:00 +31°C° 0.1 mm 3 mps 749 mmHg 86%
    12:00 +31°C° 0.1 mm 3 mps 749 mmHg 85%
    13:00 +34°C° 0.3 mm 3 mps 748 mmHg 80%
    14:00 +35°C° 0.3 mm 4 mps 748 mmHg 76%
    15:00 +36°C° 0.3 mm 4 mps 747 mmHg 71%
    16:00 +36°C° 0.3 mm 4 mps 747 mmHg 74%
    17:00 +35°C° 0.3 mm 3 mps 747 mmHg 76%
    18:00 +35°C° 0.3 mm 2 mps 747 mmHg 78%
    19:00 +34°C° 0.8 mm 3 mps 747 mmHg 82%
    20:00 +32°C° 0.8 mm 4 mps 748 mmHg 86%
    21:00 +30°C° 0.8 mm 5 mps 749 mmHg 89%
    22:00 +29°C° 0.7 mm 4 mps 749 mmHg 90%
    23:00 +29°C° 0.7 mm 4 mps 749 mmHg 91%

    27 May, Monday

    Time Temperature Precipitation Wind Pressure Humidity
    00:00 +28°C° 0.7 mm 4 mps 749 mmHg 92%
    01:00 +28°C° 2.4 mm 4 mps 749 mmHg 93%
    02:00 +28°C° 2.4 mm 4 mps 748 mmHg 94%
    03:00 +28°C° 2.4 mm 3 mps 748 mmHg 96%
    04:00 +28°C° 2 mm 3 mps 748 mmHg 95%
    05:00 +28°C° 2 mm 4 mps 749 mmHg 95%
    06:00 +28°C° 2 mm 4 mps 749 mmHg 95%
    07:00 +28°C° 1.1 mm 4 mps 749 mmHg 92%
    08:00 +29°C° 1.1 mm 4 mps 750 mmHg 90%
    09:00 +30°C° 1.1 mm 4 mps 750 mmHg 87%
    10:00 +32°C° 0.2 mm 4 mps 750 mmHg 81%
    11:00 +34°C° 0.2 mm 4 mps 750 mmHg 74%
    12:00 +36°C° 0.2 mm 4 mps 750 mmHg 67%
    13:00 +36°C° 0.3 mm 4 mps 749 mmHg 66%
    14:00 +36°C° 0.3 mm 3 mps 748 mmHg 66%
    15:00 +37°C° 0.3 mm 3 mps 748 mmHg 65%
    16:00 +36°C° 0.1 mm 3 mps 747 mmHg 68%
    17:00 +36°C° 0.1 mm 3 mps 747 mmHg 71%
    18:00 +35°C° 0.1 mm 3 mps 747 mmHg 74%
    19:00 +34°C° 0.1 mm 3 mps 748 mmHg 76%
    20:00 +33°C° 0.1 mm 3 mps 749 mmHg 79%
    21:00 +31°C° 0.1 mm 3 mps 749 mmHg 81%
    22:00 +30°C° 1.3 mm 3 mps 749 mmHg 84%
    23:00 +30°C° 1.3 mm 3 mps 749 mmHg 86%

    28 May, Tuesday

    Time Temperature Precipitation Wind Pressure Humidity
    00:00 +29°C° 1.3 mm 3 mps 749 mmHg 89%
    01:00 +29°C° 0.7 mm 3 mps 749 mmHg 89%
    02:00 +28°C° 0.7 mm 4 mps 749 mmHg 90%
    03:00 +28°C° 0.7 mm 4 mps 748 mmHg 90%
    04:00 +28°C° 1.2 mm 4 mps 749 mmHg 90%
    05:00 +27°C° 1.2 mm 5 mps 749 mmHg 90%
    06:00 +27°C° 1.2 mm 5 mps 749 mmHg 90%
    07:00 +28°C° 1.4 mm 5 mps 750 mmHg 89%
    08:00 +28°C° 1.4 mm 5 mps 750 mmHg 87%
    09:00 +29°C° 1.4 mm 4 mps 751 mmHg 86%
    10:00 +32°C° 0.2 mm 4 mps 751 mmHg 81%
    11:00 +34°C° 0.2 mm 4 mps 750 mmHg 77%
    12:00 +35°C° 0.2 mm 4 mps 750 mmHg 72%
    13:00 +36°C° 0.1 mm 4 mps 750 mmHg 70%
    14:00 +36°C° 0.1 mm 3 mps 749 mmHg 69%
    15:00 +36°C° 0.1 mm 3 mps 748 mmHg 67%
    16:00 +36°C° 0.1 mm 3 mps 748 mmHg 69%
    17:00 +36°C° 0.1 mm 3 mps 748 mmHg 72%
    18:00 +35°C° 0.1 mm 3 mps 747 mmHg 74%
    19:00 +34°C° 0.1 mm 3 mps 748 mmHg 77%
    20:00 +33°C° 0.1 mm 3 mps 749 mmHg 79%
    21:00 +31°C° 0.1 mm 2 mps 749 mmHg 82%
    22:00 +31°C° 2 mm 3 mps 749 mmHg 84%
    23:00 +30°C° 2 mm 3 mps 749 mmHg 85%

    29 May, Wednesday

    Time Temperature Precipitation Wind Pressure Humidity
    00:00 +29°C° 2 mm 4 mps 749 mmHg 87%
    01:00 +29°C° 1 mm 4 mps 749 mmHg 88%
    02:00 +28°C° 1 mm 4 mps 749 mmHg 89%
    03:00 +28°C° 1 mm 4 mps 748 mmHg 91%
    04:00 +28°C° 1.2 mm 4 mps 749 mmHg 92%
    05:00 +28°C° 1.2 mm 4 mps 749 mmHg 93%
    06:00 +28°C° 1.2 mm 4 mps 749 mmHg 93%
    07:00 +28°C° 1.2 mm 4 mps 750 mmHg 92%
    08:00 +29°C° 1.2 mm 4 mps 750 mmHg 91%
    09:00 +29°C° 1.2 mm 4 mps 751 mmHg 89%
    10:00 +32°C° 0 mm 4 mps 750 mmHg 83%
    11:00 +34°C° 0 mm 4 mps 750 mmHg 77%
    12:00 +35°C° 0 mm 4 mps 750 mmHg 71%
    13:00 +36°C° 0.5 mm 4 mps 749 mmHg 69%
    14:00 +36°C° 0.5 mm 3 mps 748 mmHg 67%
    15:00 +37°C° 0.5 mm 3 mps 747 mmHg 65%
    16:00 +36°C° 0.8 mm 3 mps 747 mmHg 68%
    17:00 +36°C° 0.8 mm 3 mps 747 mmHg 72%
    18:00 +35°C° 0.8 mm 2 mps 747 mmHg 75%
    19:00 +34°C° 0.9 mm 3 mps 747 mmHg 79%
    20:00 +33°C° 0.9 mm 3 mps 747 mmHg 82%
    21:00 +32°C° 0.9 mm 4 mps 748 mmHg 86%
    22:00 +30°C° 2.6 mm 4 mps 748 mmHg 87%
    23:00 +30°C° 2.6 mm 4 mps 748 mmHg 88%
    Show more